Location: Caltech
(34.1382°N, 118.1253°W)
Time: 10:39:08
(UTC-07:00)

MaSat-1 - Visible Passes

Search period start: 25 July 2014 00:00
Search period end: 04 August 2014 00:00
Orbit: 281 x 765 km, 69.5° (Epoch: 25 July)

Date Brightness Start Highest point End Pass type
(mag) Time Alt. Az. Time Alt. Az. Time Alt. Az.
25 Jul ? 21:58:08 72° ESE 21:58:12 72° ESE 22:02:37 10° NNE visible
26 Jul ? 21:43:09 33° S 21:44:50 75° ESE 21:49:18 10° NNE visible
27 Jul ? 21:27:37 10° SSW 21:31:24 77° ESE 21:35:54 10° NNE visible
28 Jul ? 21:14:04 10° SSW 21:17:54 79° ESE 21:22:26 10° NNE visible
29 Jul ? 21:00:27 10° SSW 21:04:19 81° ESE 21:08:53 10° NNE visible
30 Jul ? 05:24:50 10° NNE 05:26:31 11° NE 05:28:11 10° ENE visible
30 Jul ? 20:46:46 10° SSW 20:50:40 83° ESE 20:55:17 10° NNE visible
31 Jul ? 05:11:07 10° NNE 05:12:52 12° NE 05:14:36 10° ENE visible
31 Jul ? 20:33:01 10° SSW 20:36:57 85° ESE 20:41:36 10° NNE visible
01 Aug ? 04:57:20 10° NNE 04:59:09 12° NE 05:00:55 10° ENE visible
01 Aug ? 20:19:12 10° SSW 20:23:10 86° ESE 20:27:50 10° NNE visible
02 Aug ? 04:43:30 10° NNE 04:45:21 12° NE 04:47:10 10° ENE visible
03 Aug ? 04:29:36 10° NNE 04:31:29 12° NE 04:33:20 10° ENE visible
